sat.trackr.live / text

‹ back to catalog

STARLINK-35996

NORAD 66800 · 2025-278K

PAYLOAD ACTIVE UNKNOWN

§ Identity

Operator
Country
US
Launch date
2025-12-01
Launch site
AFETR
Launch vehicle
Mass (kg)
RCS (m²)

Purposes: comms

External: N2YO · Heavens-Above · Gunter

§ Orbital elements

Epoch: 2026-09-19T19:49:58.146816Z

Period
94.27 min
Inclination
42.9994°
Eccentricity
0.0001126
Mean motion
15.27577258 rev/d
Perigee alt
482.3 km
Apogee alt
483.8 km
Semi-major
6,861.2 km
B*
4.2984e-4
RAAN
97.6486°
Arg perigee
273.6543°
Mean anomaly
86.4180°
Rev number
4,490

§ Raw data

STARLINK-359961 66800U 25278K   26262.82636744  .00011584  00000+0  42984-3 0  99902 66800  42.9994  97.6486 0001126 273.6543  86.4180 15.27577258 44902

JSON: /api/v1/satellites/66800 · /tle

For live sub-satellite position, see the globe view (requires WebGL).

§ Visibility from observer

Set your observer location to see the next 7 days of passes ≥ 10°. The values pass through the URL so the page stays shareable.

No JS? Fill the form by hand. The geolocation button needs JavaScript.